Location: Coopersdale
(40.3556°N, 78.9372°W)
Time: 07:36:48
(UTC+00:00)

Tiros 1 despin weight - Pass Details

Date: 27 June 2021
Orbit: 593 x 642 km, 48.2° (Epoch: 04 August)

Event Time Altitude Azimuth Distance (km) Brightness Sun altitude
Exits shadow 07:23:23 39° 161° (SSE) 904 ? -20.1°
Maximum altitude 07:23:56 41° 141° (SE) 875 ? -20.0°
Drops below altitude 10° 07:28:05 10° 71° (ENE) 1,932 ? -19.6°
Sets 07:30:27 0° 64° (ENE) 2,832 ? -19.4°
